Temperature
18 18 18 18 18 18 18 18 18 18 18 18 18 18 18 18 18 18 18 17 17 17 17 18 18 18 18 18 18 18 18 18 17 17 17 17 18 18 18 18 18 17 17
17 17 17 18 18 18 18 18 18 18 18 18 18 18 18 18 18 18 18 18 17 17 17 17 18 17 17 17 17 18 17 17 17 17 17 17 17 17 18 18 17 17 17
17 17 17 17 18 18 18 18 17 17 18 18 18 18 18 18 18 18 18 18 18 17 17 17 18 17 17 17 17 17 17 17 17 17 17 17 17 17 17 17 17 17 17
16 17 17 17 17 17 17 17 17 17 17 17 18 18 18 18 18 18 18 18 18 18 17 17 17 17 17 17 17 17 17 17 17 17 17 17 17 17 17 17 17 17 17
16 16 16 17 17 17 17 17 17 17 17 17 18 18 18 18 18 18 18 18 18 18 18 18 17 18 17 17 17 17 17 17 17 17 17 17 17 17 17 17 17 17 17
15 16 16 16 16 17 17 17 17 17 17 17 17 17 18 18 18 18 18 18 18 18 18 18 18 18 17 17 17 17 17 17 17 17 17 17 17 17 17 17 17 17 16
15 15 15 16 16 16 17 17 17 17 17 17 17 17 17 18 18 18 18 18 18 18 18 18 18 17 17 17 17 17 17 17 17 17 17 17 17 17 16 16 16 16 16
14 15 15 15 16 16 16 16 16 16 17 17 17 16 16 17 18 18 18 18 18 18 18 18 18 18 17 17 17 17 17 17 17 16 17 16 16 16 16 16 16 16 16
14 14 15 15 15 15 16 16 16 16 16 17 17 16 16 16 17 18 18 18 18 18 18 18 18 17 17 17 17 17 17 17 17 16 16 16 16 16 16 16 16 16 16
14 14 14 15 15 15 15 16 16 16 16 16 16 16 16 16 16 17 17 18 18 18 18 18 18 18 17 17 17 17 17 17 17 16 16 16 16 16 16 16 16 16 16
13 14 14 14 15 15 15 15 15 16 16 16 16 16 16 16 16 16 16 17 18 18 18 18 18 18 17 17 17 17 17 17 17 16 16 16 16 16 16 16 16 16 16
13 13 13 14 14 14 15 15 15 15 15 16 16 16 16 16 16 16 16 16 17 17 18 18 18 17 17 17 17 17 17 17 17 17 16 16 16 16 16 16 16 16 16
13 13 13 13 14 14 14 14 15 15 15 15 15 16 16 16 16 16 16 16 16 17 17 17 17 17 17 17 17 17 17 17 17 16 16 16 16 16 16 16 16 16 16
12 12 13 13 13 13 14 14 14 15 15 15 15 15 15 15 15 15 15 15 15 16 16 17 17 17 17 17 17 17 17 17 17 16 16 16 16 16 16 16 16 15 15
12 12 12 13 13 13 13 13 14 14 14 14 15 15 15 15 15 15 15 15 15 15 15 16 16 17 17 17 17 17 17 17 16 16 16 16 16 16 16 15 15 15 15
12 12 12 12 13 13 13 13 13 13 14 14 14 14 14 15 15 15 15 15 15 15 15 16 16 16 16 16 16 16 16 16 16 16 16 15 15 15 15 15 15 15 15
11 12 12 12 12 12 13 13 13 13 13 13 14 14 14 14 14 14 14 15 15 14 14 15 15 15 15 16 16 16 16 16 16 15 15 15 15 15 15 15 15 15 14
11 11 11 12 12 12 12 12 13 13 13 13 13 13 13 14 14 14 14 14 14 14 14 14 14 15 15 15 15 15 15 15 15 15 15 14 14 14 14 14 14 14 14
10 11 11 11 11 11 12 12 12 12 12 12 12 13 13 13 13 13 13 14 14 14 14 14 14 14 14 14 15 15 15 15 15 15 14 14 14 14 14 14 14 14 14
10 10 10 10 11 11 11 11 12 12 12 12 12 12 12 12 13 13 13 13 14 13 14 13 14 14 14 14 14 14 14 14 14 14 14 14 13 13 13 13 13 13 13
10 10 10 10 10 10 11 11 11 11 11 12 12 12 12 12 12 12 13 13 13 13 13 13 13 13 13 13 14 14 14 14 13 13 13 13 13 13 13 13 13 13 13
9 9 9 10 10 10 10 10 10 11 11 11 11 11 11 12 12 12 12 13 13 13 13 13 13 13 13 13 13 13 13 13 13 13 13 13 13 13 13 12 12 12 12
9 9 9 9 9 9 10 10 10 10 11 11 11 11 11 11 11 12 12 12 13 13 13 13 13 13 13 13 13 13 13 13 13 12 12 12 12 12 12 12 12 12 12
9 9 9 9 9 9 9 9 10 10 10 10 11 11 11 11 11 11 12 12 12 12 12 13 13 13 13 13 13 13 13 13 13 12 12 12 11 11 11 11 11 11 11
9 9 9 9 9 9 9 9 9 10 10 10 11 11 11 11 11 11 12 12 12 12 12 12 12 13 13 13 13 13 13 13 12 12 12 11 11 11 10 10 10 10 10
9 9 9 9 9 9 9 9 9 10 10 10 10 11 11 11 11 11 11 12 12 12 12 12 12 12 12 12 13 13 13 13 12 11 11 11 11 10 10 9 10 10 10
Wind_Speed
5 4 5 7 8 9 7 6 6 6 6 6 7 6 6 7 8 8 9 10 11 11 10 9 9 8 8 8 8 8 8 8 9 11 11 11 12 11 11 10 10 9 8
5 5 5 5 6 8 8 7 6 5 5 4 5 6 7 8 9 10 11 11 12 12 11 11 10 10 9 9 9 9 8 9 9 10 11 11 11 11 10 10 8 8 7
6 4 4 5 5 8 8 7 6 4 4 4 5 6 6 8 8 10 11 11 12 13 13 12 12 11 10 10 10 9 9 9 10 10 11 11 11 10 10 9 8 7 5
7 4 4 5 6 6 5 5 5 5 5 4 4 4 4 5 7 9 10 11 11 11 13 14 13 13 12 11 10 10 10 10 10 10 11 11 11 10 10 9 8 6 5
7 5 4 4 5 4 5 6 5 5 4 4 4 4 4 4 5 7 8 11 12 12 12 13 14 14 13 12 11 11 11 11 11 11 11 11 11 11 10 9 7 6 5
7 5 4 5 4 4 5 5 5 5 4 4 4 4 2 3 4 5 7 8 10 12 12 12 12 14 15 14 13 12 12 12 12 12 12 12 12 11 10 9 7 6 5
6 4 4 4 4 5 6 6 5 5 5 4 2 2 3 2 3 4 5 5 7 10 11 12 12 11 12 14 14 13 13 13 12 12 12 12 12 11 10 9 8 6 5
6 4 4 4 5 5 6 6 5 4 4 5 4 2 2 3 2 3 4 6 7 6 8 12 12 12 12 12 13 14 14 13 13 13 13 13 12 11 11 9 8 7 6
7 5 5 4 5 5 6 6 7 7 5 5 4 4 4 5 2 1 3 5 6 6 7 8 12 13 13 12 12 14 15 14 13 13 13 13 12 12 11 10 9 8 7
6 5 5 4 5 5 6 7 7 6 6 5 4 4 3 4 4 2 1 2 5 7 8 8 9 12 14 13 13 15 16 15 14 14 13 13 13 12 12 11 9 8 7
6 6 5 4 5 5 6 7 6 8 7 7 5 4 3 2 2 3 3 2 3 4 6 7 6 9 13 14 13 14 16 16 16 15 14 13 13 13 12 11 10 9 8
6 7 6 5 4 4 6 7 7 8 8 8 7 6 5 5 5 4 4 3 3 3 4 5 6 7 11 13 14 15 17 17 17 16 14 13 13 13 12 11 10 9 9
5 8 8 6 5 5 5 5 6 7 8 8 9 8 7 6 4 5 5 4 3 2 2 4 5 6 10 11 13 16 17 18 17 17 15 14 14 13 12 12 11 10 10
6 8 8 7 7 7 6 4 4 5 5 7 9 9 7 7 6 6 6 6 4 3 4 5 3 6 8 11 13 16 14 18 18 17 16 16 15 14 13 12 11 10 10
6 8 8 8 8 7 7 6 3 4 3 4 5 6 6 6 7 7 6 6 7 6 7 6 5 5 7 10 12 13 13 16 18 17 17 16 16 15 14 13 11 10 10
7 8 9 9 9 8 8 6 4 4 2 2 2 4 4 4 5 6 7 6 7 7 6 5 5 3 5 7 11 12 13 14 16 16 16 16 16 15 14 13 12 11 10
8 8 8 9 9 9 9 7 7 5 3 2 2 2 3 3 4 4 5 6 6 6 6 3 3 3 5 6 6 9 10 10 12 15 15 15 14 14 13 13 12 12 11
7 7 8 8 8 9 9 8 8 7 5 4 3 2 2 2 3 4 5 6 6 6 5 5 4 4 4 6 7 7 7 9 10 14 15 14 14 14 13 13 12 12 11
7 7 7 8 8 8 8 8 7 6 5 4 3 3 3 2 3 3 4 5 5 6 5 5 4 3 3 5 6 6 7 5 8 12 15 15 15 14 13 13 13 13 12
6 7 7 7 8 8 7 7 7 6 6 5 4 3 2 2 3 3 4 5 5 6 6 6 5 4 4 5 7 8 7 5 6 8 10 13 14 14 14 14 14 14 14
6 6 7 7 8 7 8 8 6 6 5 5 4 4 3 3 3 2 2 4 5 5 6 6 5 5 6 7 8 6 8 8 6 5 8 8 10 9 10 13 14 15 15
6 6 6 7 7 7 12 13 8 5 5 5 5 5 4 4 4 3 2 3 5 6 6 6 5 6 7 7 7 9 10 8 5 5 7 6 6 7 8 10 14 17 17
5 6 6 6 7 9 14 14 11 6 5 5 5 4 4 4 5 3 3 1 1 5 6 5 6 6 7 9 10 11 10 8 6 7 7 5 5 6 7 11 16 17 18
5 5 5 6 6 8 14 14 11 6 4 5 4 4 4 4 4 3 2 2 2 0 2 4 5 5 6 8 9 9 10 10 9 6 4 4 4 5 6 10 15 17 18
4 4 4 5 6 8 13 13 10 4 4 5 5 4 3 3 5 3 2 2 2 2 1 3 5 6 9 12 12 11 11 12 8 4 2 4 4 4 4 4 11 16 17
4 5 4 4 5 6 11 13 10 3 4 5 5 5 5 4 4 4 2 2 2 1 2 4 5 6 8 11 14 12 12 12 9 4 3 4 6 4 4 2 4 9 12
Wind_Direction
249 241 234 226 226 229 229 220 214 214 214 219 226 229 231 232 234 235 238 242 235 224 212 204 200 198 191 180 169 159 149 143 141 143 141 141 138 135 131 128 126 122 118
249 244 236 228 227 227 225 220 215 211 214 209 219 224 229 229 229 231 233 237 235 224 214 208 205 203 199 191 181 172 162 156 151 150 150 148 145 144 141 140 137 133 127
259 250 243 238 233 229 225 221 211 204 213 213 224 225 226 228 225 225 224 225 227 223 215 209 207 206 205 200 191 182 175 169 164 161 160 158 156 154 153 151 147 143 139
268 251 243 241 238 232 223 217 205 206 215 213 220 231 228 225 226 221 217 216 215 215 215 212 207 206 207 208 200 191 185 181 176 173 171 169 167 166 164 164 163 162 161
274 250 243 243 238 229 227 226 204 197 205 218 227 232 231 228 231 221 209 209 208 207 208 211 210 206 207 211 209 202 194 190 187 184 180 177 176 175 174 175 175 178 182
284 258 243 242 233 229 228 222 212 195 192 203 237 252 248 241 230 220 213 206 204 206 205 204 206 208 210 212 213 212 203 198 196 192 188 187 185 184 184 184 186 190 196
294 268 254 244 231 228 229 221 213 208 203 173 177 267 287 251 229 226 212 200 201 203 200 202 203 203 209 214 215 215 212 206 202 199 196 193 192 190 190 192 193 198 202
308 292 260 247 236 232 234 225 207 199 202 176 169 161 273 300 261 223 204 205 205 192 197 203 202 202 203 206 214 217 216 212 210 206 202 198 195 193 192 193 194 193 187
312 300 285 265 246 229 230 223 207 199 201 196 181 164 180 214 250 275 221 211 200 194 200 197 202 204 203 204 209 216 217 216 216 213 207 202 196 192 192 192 191 187 179
322 317 300 279 264 245 236 228 214 206 193 197 196 200 186 162 167 218 278 228 207 204 202 204 205 205 204 203 207 210 214 216 217 217 212 205 197 193 191 190 188 184 176
336 337 322 301 284 263 248 238 223 211 205 198 187 177 185 185 165 168 210 226 220 212 204 202 200 202 205 206 206 209 210 212 214 217 216 208 200 194 191 188 185 182 179
343 350 341 329 309 284 263 249 233 221 216 209 201 186 175 177 189 181 188 204 218 219 205 200 200 200 202 206 209 209 208 209 210 212 212 207 200 193 190 188 186 182 180
349 349 350 345 336 316 290 266 247 237 225 220 214 209 203 199 171 175 180 182 196 204 206 213 209 201 203 203 210 209 208 206 205 206 205 202 195 190 188 188 186 185 183
344 349 353 354 351 347 338 312 269 250 236 230 226 216 211 210 195 185 181 174 182 201 215 224 203 205 204 200 207 203 203 203 202 202 200 196 190 187 185 185 186 184 182
353 356 357 358 356 354 348 337 316 300 266 238 232 221 215 211 207 202 195 187 185 202 219 212 205 202 200 197 198 196 196 200 199 197 195 191 187 185 182 182 184 181 177
355 356 359 359 358 358 355 349 333 324 320 292 239 218 214 209 209 204 203 200 194 197 213 202 199 184 189 199 194 193 195 192 192 188 187 185 183 181 180 177 175 173 171
355 358 356 356 357 358 356 357 354 349 342 335 327 247 224 201 206 207 203 198 198 194 209 197 175 168 178 184 173 181 185 180 180 180 179 176 174 172 172 171 168 166 166
352 353 352 355 355 354 354 357 356 355 352 351 341 318 270 217 215 212 210 203 202 197 196 196 180 172 180 179 166 166 168 171 167 169 166 164 164 164 164 163 159 157 157
349 352 354 352 348 345 347 349 348 348 348 344 338 332 326 305 250 225 215 205 198 198 191 184 181 168 157 155 151 150 146 137 147 154 154 152 153 155 156 158 155 152 149
347 348 346 344 341 338 342 345 346 347 346 343 342 337 323 300 274 249 223 210 197 196 190 182 176 167 154 151 154 150 144 133 130 130 129 134 139 142 148 150 148 145 142
346 340 342 346 345 344 348 348 344 345 346 345 347 348 330 317 294 259 230 206 193 193 183 183 176 171 164 162 165 153 145 132 118 125 123 121 122 120 127 135 140 140 138
338 341 344 342 346 349 347 356 360 351 347 348 344 341 337 348 353 345 294 222 198 187 183 180 180 179 171 162 155 151 145 142 136 136 124 115 114 116 116 126 137 137 136
331 332 333 338 338 335 349 357 1 2 352 348 341 338 347 359 2 358 7 13 207 195 191 179 180 181 172 166 160 159 156 145 132 141 123 108 105 106 103 121 132 134 134
322 323 326 333 335 341 351 352 357 3 354 350 343 338 341 340 343 356 25 47 44 144 192 184 183 179 169 164 162 153 140 121 109 105 101 109 104 97 93 102 120 125 127
321 321 322 336 341 338 347 348 1 350 352 352 348 348 346 339 343 7 47 68 65 48 86 151 158 160 160 155 148 141 142 142 136 116 84 109 120 99 78 74 97 113 121
311 318 326 340 343 336 344 352 1 353 354 349 347 351 357 357 3 24 46 65 76 65 105 115 124 137 147 154 155 158 156 152 142 131 142 119 135 128 110 72 80 102 110
Height
1532 1532 1533 1535 1536 1537 1539 1539 1541 1541 1542 1543 1544 1546 1547 1549 1551 1553 1555 1556 1557 1557 1557 1557 1558 1558 1560 1561 1563 1564 1565 1567 1568 1570 1571 1573 1574 1575 1576 1578 1579 1580 1581
1528 1528 1529 1530 1531 1533 1534 1535 1537 1538 1539 1541 1542 1543 1545 1547 1549 1551 1553 1554 1555 1556 1556 1556 1557 1557 1559 1560 1562 1563 1565 1566 1568 1569 1571 1573 1574 1575 1577 1578 1579 1580 1581
1523 1524 1525 1526 1527 1529 1530 1532 1533 1534 1536 1537 1539 1541 1543 1545 1547 1548 1550 1552 1553 1554 1555 1555 1555 1556 1557 1559 1561 1562 1564 1566 1567 1569 1570 1572 1574 1575 1576 1578 1579 1580 1581
1518 1519 1520 1521 1523 1524 1526 1527 1529 1530 1532 1534 1536 1538 1540 1542 1544 1546 1548 1550 1551 1553 1553 1554 1554 1555 1556 1557 1559 1561 1563 1564 1566 1568 1569 1571 1573 1574 1576 1577 1578 1579 1580
1514 1515 1516 1517 1518 1520 1521 1523 1524 1526 1528 1530 1533 1535 1537 1538 1541 1543 1545 1547 1549 1550 1552 1553 1553 1554 1554 1556 1557 1559 1561 1563 1565 1566 1568 1570 1571 1573 1575 1576 1577 1579 1579
1510 1510 1511 1512 1514 1515 1517 1518 1520 1522 1524 1526 1528 1530 1532 1534 1536 1538 1541 1543 1545 1547 1549 1551 1552 1552 1553 1554 1555 1557 1559 1561 1563 1565 1567 1568 1570 1572 1573 1575 1576 1577 1578
1505 1506 1507 1508 1509 1510 1512 1514 1516 1517 1519 1521 1524 1525 1527 1529 1531 1534 1536 1539 1541 1544 1546 1548 1550 1551 1551 1552 1553 1555 1557 1559 1561 1563 1565 1567 1568 1570 1572 1573 1574 1575 1576
1501 1501 1502 1503 1505 1506 1507 1509 1511 1512 1514 1517 1518 1520 1522 1525 1526 1528 1531 1534 1537 1540 1542 1545 1547 1548 1550 1550 1551 1553 1555 1557 1559 1561 1563 1565 1566 1568 1570 1571 1572 1573 1574
1497 1497 1498 1499 1500 1501 1502 1504 1506 1508 1510 1511 1514 1516 1517 1518 1520 1523 1526 1529 1532 1535 1538 1541 1543 1545 1547 1548 1549 1551 1552 1554 1556 1558 1560 1562 1564 1566 1567 1569 1570 1571 1572
1495 1494 1494 1495 1496 1496 1498 1499 1501 1503 1505 1506 1509 1511 1513 1514 1517 1518 1520 1523 1526 1529 1533 1536 1539 1542 1544 1546 1547 1549 1550 1552 1553 1555 1558 1560 1562 1563 1565 1567 1568 1569 1570
1494 1492 1492 1491 1491 1492 1493 1494 1495 1497 1499 1501 1503 1505 1507 1509 1511 1514 1515 1517 1521 1523 1527 1530 1534 1537 1540 1542 1544 1546 1548 1549 1551 1553 1555 1557 1559 1561 1563 1564 1566 1567 1568
1493 1491 1490 1489 1488 1488 1488 1489 1490 1492 1493 1495 1497 1499 1501 1503 1505 1508 1510 1512 1515 1518 1521 1524 1528 1532 1535 1538 1541 1543 1545 1547 1549 1550 1552 1554 1556 1558 1560 1562 1563 1565 1566
1493 1491 1489 1487 1486 1485 1485 1485 1485 1486 1488 1489 1491 1493 1496 1498 1500 1503 1505 1507 1510 1512 1515 1518 1522 1526 1529 1533 1536 1539 1541 1544 1546 1548 1550 1552 1554 1556 1558 1560 1561 1563 1564
1494 1491 1489 1487 1485 1483 1482 1482 1482 1482 1483 1484 1486 1487 1489 1492 1495 1497 1500 1503 1505 1507 1509 1512 1515 1519 1523 1526 1530 1534 1537 1540 1542 1545 1547 1549 1551 1553 1555 1558 1559 1561 1563
1495 1492 1489 1487 1484 1482 1481 1479 1479 1478 1479 1479 1481 1482 1484 1486 1488 1491 1494 1497 1500 1501 1503 1506 1509 1513 1517 1520 1524 1528 1532 1535 1539 1541 1544 1546 1549 1551 1553 1555 1557 1559 1561
1495 1492 1489 1486 1484 1482 1480 1478 1477 1476 1476 1476 1477 1478 1479 1481 1483 1485 1487 1490 1493 1496 1497 1500 1504 1508 1511 1514 1518 1522 1527 1530 1534 1537 1540 1543 1546 1548 1551 1553 1555 1557 1559
1495 1492 1489 1486 1484 1482 1479 1478 1476 1475 1474 1474 1473 1474 1475 1476 1478 1479 1481 1484 1486 1489 1492 1495 1498 1501 1505 1509 1512 1517 1521 1525 1529 1532 1536 1539 1542 1545 1548 1550 1553 1555 1556
1495 1492 1489 1486 1484 1481 1479 1477 1475 1474 1473 1472 1471 1472 1472 1472 1474 1475 1477 1478 1481 1483 1487 1489 1492 1495 1499 1503 1507 1511 1515 1520 1524 1527 1531 1535 1538 1542 1545 1547 1550 1552 1554
1495 1492 1489 1486 1484 1481 1479 1477 1475 1474 1472 1471 1471 1470 1469 1470 1470 1471 1472 1474 1476 1478 1481 1484 1486 1490 1493 1497 1501 1506 1510 1514 1519 1522 1526 1531 1535 1538 1541 1544 1547 1549 1551
1495 1492 1489 1486 1484 1481 1479 1477 1475 1473 1472 1471 1470 1469 1468 1468 1468 1468 1469 1470 1471 1474 1476 1479 1482 1484 1488 1492 1497 1500 1505 1510 1514 1518 1522 1527 1531 1534 1538 1541 1544 1546 1548
1495 1492 1490 1487 1484 1481 1479 1477 1475 1473 1472 1471 1470 1469 1468 1467 1466 1466 1466 1467 1468 1470 1471 1474 1477 1480 1483 1487 1491 1496 1501 1506 1511 1514 1519 1523 1527 1531 1535 1538 1541 1543 1545
1495 1492 1490 1487 1484 1481 1479 1477 1475 1473 1472 1470 1469 1468 1467 1466 1465 1464 1464 1465 1466 1467 1468 1470 1473 1475 1478 1483 1488 1492 1497 1502 1507 1512 1516 1521 1524 1528 1532 1535 1538 1540 1543
1495 1492 1490 1487 1484 1481 1478 1476 1474 1472 1471 1470 1469 1468 1467 1466 1465 1464 1463 1463 1463 1464 1466 1468 1470 1473 1476 1479 1484 1489 1493 1498 1503 1508 1514 1518 1522 1526 1529 1532 1535 1538 1540
1494 1491 1489 1486 1483 1480 1478 1475 1473 1472 1471 1469 1468 1467 1466 1465 1465 1463 1462 1462 1462 1463 1464 1466 1468 1472 1475 1478 1482 1486 1490 1496 1502 1507 1512 1516 1520 1524 1527 1530 1533 1536 1538
1493 1490 1488 1485 1482 1480 1477 1475 1473 1472 1470 1469 1468 1467 1466 1466 1465 1464 1463 1463 1463 1463 1464 1466 1467 1470 1473 1476 1480 1484 1488 1493 1498 1504 1509 1513 1518 1522 1526 1529 1531 1534 1536
1492 1489 1487 1484 1481 1479 1476 1474 1473 1471 1470 1469 1468 1467 1467 1466 1465 1464 1464 1463 1463 1463 1464 1465 1467 1469 1472 1475 1478 1482 1487 1491 1495 1502 1506 1511 1515 1519 1524 1528 1530 1532 1535